sat.trackr.live / text

‹ back to catalog

PROPCUBE 1 (FLORA)

NORAD 40976 · 2015-058N

PAYLOAD ACTIVE UNKNOWN

§ Identity

Operator
Country
US
Launch date
2015-10-08
Launch site
AFWTR
Launch vehicle
Mass (kg)
RCS (m²)

Purposes: tech_demo

External: N2YO · Heavens-Above · Gunter

§ Orbital elements

Epoch: 2026-09-19T17:37:36.112800Z

Period
96.67 min
Inclination
64.7753°
Eccentricity
0.0138564
Mean motion
14.89618916 rev/d
Perigee alt
502.4 km
Apogee alt
695.8 km
Semi-major
6,977.3 km
B*
1.0093e-4
RAAN
2.1036°
Arg perigee
25.4186°
Mean anomaly
335.3654°
Rev number
13,034

§ Raw data

PROPCUBE 1 (FLORA)1 40976U 15058N   26262.73444575  .00000975  00000+0  10093-3 0  99982 40976  64.7753   2.1036 0138564  25.4186 335.3654 14.89618916130348

JSON: /api/v1/satellites/40976 · /tle

For live sub-satellite position, see the globe view (requires WebGL).

§ Visibility from observer

Set your observer location to see the next 7 days of passes ≥ 10°. The values pass through the URL so the page stays shareable.

No JS? Fill the form by hand. The geolocation button needs JavaScript.